| time (UTC) | temp C | wind direction | speed KPH | gust KPH | rain 1hr cm | rain 24hr cm | rain mn cm | humidity % | barometer mb |
| 20260510015308 | 12 | 57 | 3.2 | 4.8 | 0.00 | 0.00 | 0.00 | 93 | 1009.9 |
| 20260510013307 | 12 | 58 | 3.2 | 4.8 | 0.00 | 0.00 | 0.00 | 92 | 1009.8 |
| 20260510011807 | 12 | 65 | 3.2 | 4.8 | 0.00 | 0.00 | 0.00 | 92 | 1009.8 |
| 20260510010806 | 12 | 51 | 1.6 | 4.8 | 0.00 | 0.00 | 0.00 | 92 | 1009.7 |
| 20260510005807 | 12 | 18 | 3.2 | 4.8 | 0.00 | 0.00 | 0.00 | 92 | 1009.7 |
| 20260510004807 | 12 | 44 | 3.2 | 4.8 | 0.00 | 0.00 | 0.00 | 91 | 1009.7 |
| 20260510003807 | 12 | 32 | 1.6 | 4.8 | 0.00 | 0.00 | 0.00 | 91 | 1009.6 |
| 20260510002307 | 12 | 55 | 1.6 | 4.8 | 0.00 | 0.00 | 0.00 | 91 | 1009.5 |
| 20260510001807 | 12 | 57 | 1.6 | 4.8 | 0.00 | 0.00 | 0.00 | 91 | 1009.5 |
| 20260509235307 | 12 | 58 | 4.8 | 4.8 | 0.00 | 0.00 | 0.00 | 90 | 1009.4 |
| 20260509234807 | 12 | 62 | 3.2 | 9.7 | 0.00 | 0.00 | 0.00 | 90 | 1009.3 |
| 20260509234307 | 12 | 49 | 3.2 | 8.0 | 0.00 | 0.00 | 0.00 | 89 | 1009.3 |
| 20260509233807 | 13 | 67 | 4.8 | 11.3 | 0.00 | 0.00 | 0.00 | 89 | 1009.2 |
| 20260509232807 | 13 | 78 | 4.8 | 4.8 | 0.00 | 0.00 | 0.00 | 87 | 1009.0 |
| 20260509230307 | 16 | 29 | 8.0 | 12.9 | 0.00 | 0.00 | 0.00 | 87 | 1009.2 |
| 20260509225807 | 16 | 25 | 9.7 | 19.3 | 0.00 | 0.00 | 0.00 | 87 | 1009.2 |
| 20260509225306 | 16 | 9 | 8.0 | 19.3 | 0.00 | 0.00 | 0.00 | 87 | 1009.2 |
| 20260509224307 | 16 | 17 | 8.0 | 11.3 | 0.00 | 0.00 | 0.00 | 87 | 1009.3 |
| 20260509223306 | 16 | 348 | 4.8 | 8.0 | 0.00 | 0.00 | 0.00 | 88 | 1009.4 |
| 20260509222807 | 16 | 343 | 1.6 | 4.8 | 0.00 | 0.00 | 0.00 | 89 | 1009.2 |
| 20260509214307 | 13 | 181 | 8.0 | 12.9 | 0.00 | 0.00 | 0.00 | 91 | 1008.6 |
| 20260509213806 | 13 | 176 | 6.4 | 11.3 | 0.00 | 0.00 | 0.00 | 91 | 1008.5 |
| 20260509212306 | 13 | 184 | 8.0 | 14.5 | 0.00 | 0.00 | 0.00 | 90 | 1008.7 |
| 20260509211806 | 13 | 172 | 9.7 | 16.1 | 0.00 | 0.00 | 0.00 | 90 | 1008.8 |
| 20260509205308 | 13 | 197 | 8.0 | 19.3 | 0.00 | 0.00 | 0.00 | 90 | 1009.0 |
| 20260509204806 | 13 | 185 | 9.7 | 16.1 | 0.00 | 0.00 | 0.00 | 90 | 1009.0 |
| 20260509203806 | 13 | 181 | 11.3 | 19.3 | 0.00 | 0.00 | 0.00 | 91 | 1009.1 |
| 20260509200807 | 13 | 174 | 14.5 | 19.3 | 0.00 | 0.00 | 0.00 | 92 | 1009.1 |
| 20260509200307 | 13 | 161 | 9.7 | 19.3 | 0.00 | 0.00 | 0.00 | 92 | 1009.2 |
| 20260509195807 | 13 | 173 | 8.0 | 14.5 | 0.00 | 0.00 | 0.00 | 92 | 1009.1 |
| 20260509195307 | 12 | 186 | 9.7 | 19.3 | 0.00 | 0.00 | 0.00 | 93 | 1009.2 |
| 20260509194806 | 12 | 182 | 12.9 | 19.3 | 0.00 | 0.00 | 0.00 | 92 | 1009.2 |
| 20260509194307 | 12 | 171 | 14.5 | 22.5 | 0.00 | 0.00 | 0.00 | 92 | 1009.2 |
| 20260509193807 | 12 | 189 | 9.7 | 24.1 | 0.00 | 0.00 | 0.00 | 92 | 1009.4 |
| 20260509193306 | 12 | 186 | 16.1 | 25.7 | 0.00 | 0.00 | 0.00 | 92 | 1009.6 |
| 20260509192806 | 12 | 179 | 19.3 | 33.8 | 0.00 | 0.00 | 0.00 | 92 | 1009.8 |
| 20260509191308 | 12 | 184 | 20.9 | 32.2 | 0.00 | 0.00 | 0.00 | 91 | 1010.1 |
| 20260509184806 | 13 | 174 | 20.9 | 35.4 | 0.00 | 0.00 | 0.00 | 90 | 1010.4 |
| 20260509183807 | 13 | 186 | 22.5 | 37.0 | 0.00 | 0.00 | 0.00 | 89 | 1010.4 |
| 20260509183307 | 13 | 182 | 22.5 | 37.0 | 0.00 | 0.00 | 0.00 | 89 | 1010.4 |
| 20260509182307 | 13 | 187 | 22.5 | 33.8 | 0.00 | 0.00 | 0.00 | 86 | 1010.4 |
| 20260509181306 | 14 | 181 | 19.3 | 33.8 | 0.00 | 0.00 | 0.00 | 85 | 1010.5 |
| 20260509175806 | 15 | 177 | 22.5 | 33.8 | 0.00 | 0.00 | 0.00 | 84 | 1010.8 |
| 20260509174807 | 14 | 190 | 16.1 | 24.1 | 0.00 | 0.00 | 0.00 | 82 | 1010.8 |
| 20260509173807 | 14 | 191 | 16.1 | 27.4 | 0.00 | 0.00 | 0.00 | 82 | 1010.7 |
| 20260509172806 | 14 | 192 | 14.5 | 22.5 | 0.00 | 0.00 | 0.00 | 82 | 1010.6 |
| 20260509171306 | 14 | 185 | 16.1 | 25.7 | 0.00 | 0.00 | 0.00 | 82 | 1010.8 |
| 20260509170806 | 14 | 189 | 16.1 | 25.7 | 0.00 | 0.00 | 0.00 | 82 | 1010.8 |
| 20260509170307 | 14 | 181 | 16.1 | 27.4 | 0.00 | 0.00 | 0.00 | 81 | 1010.8 |
| 20260509164307 | 15 | 192 | 16.1 | 25.7 | 0.00 | 0.00 | 0.00 | 80 | 1010.7 |
| 20260509163307 | 15 | 190 | 16.1 | 25.7 | 0.00 | 0.00 | 0.00 | 80 | 1010.9 |
| 20260509162806 | 15 | 195 | 14.5 | 22.5 | 0.00 | 0.00 | 0.00 | 80 | 1011.0 |
| 20260509160806 | 15 | 189 | 20.9 | 32.2 | 0.00 | 0.00 | 0.00 | 81 | 1011.5 |
| 20260509160306 | 15 | 208 | 16.1 | 27.4 | 0.00 | 0.00 | 0.00 | 80 | 1011.6 |
| 20260509155807 | 15 | 192 | 14.5 | 32.2 | 0.00 | 0.00 | 0.00 | 81 | 1011.7 |
| 20260509155306 | 15 | 187 | 14.5 | 33.8 | 0.00 | 0.00 | 0.00 | 80 | 1011.8 |
| 20260509154806 | 15 | 191 | 19.3 | 27.4 | 0.00 | 0.00 | 0.00 | 80 | 1011.8 |
| 20260509154306 | 15 | 202 | 16.1 | 32.2 | 0.00 | 0.00 | 0.00 | 80 | 1011.9 |
| 20260509151806 | 14 | 193 | 17.7 | 25.7 | 0.00 | 0.00 | 0.00 | 82 | 1012.0 |
| 20260509145806 | 14 | 199 | 14.5 | 24.1 | 0.00 | 0.00 | 0.00 | 83 | 1012.0 |
| 20260509145306 | 14 | 196 | 14.5 | 27.4 | 0.00 | 0.00 | 0.00 | 83 | 1012.0 |
| 20260509144806 | 14 | 196 | 16.1 | 29.0 | 0.00 | 0.00 | 0.00 | 82 | 1011.9 |
| 20260509143806 | 15 | 192 | 16.1 | 32.2 | 0.00 | 0.00 | 0.00 | 82 | 1011.9 |
| 20260509142307 | 14 | 204 | 16.1 | 25.7 | 0.00 | 0.00 | 0.00 | 83 | 1011.9 |
| 20260509141306 | 15 | 188 | 20.9 | 33.8 | 0.00 | 0.00 | 0.00 | 82 | 1011.8 |
| 20260509140807 | 15 | 200 | 16.1 | 29.0 | 0.00 | 0.00 | 0.00 | 82 | 1011.9 |
| 20260509135807 | 14 | 206 | 16.1 | 37.0 | 0.00 | 0.00 | 0.00 | 83 | 1011.9 |
| 20260509134807 | 14 | 197 | 16.1 | 29.0 | 0.00 | 0.00 | 0.00 | 83 | 1011.8 |
| 20260509134307 | 14 | 204 | 17.7 | 29.0 | 0.00 | 0.00 | 0.00 | 83 | 1011.9 |
| 20260509133806 | 14 | 205 | 17.7 | 32.2 | 0.00 | 0.00 | 0.00 | 83 | 1012.0 |
| 20260509132307 | 15 | 202 | 12.9 | 24.1 | 0.00 | 0.00 | 0.00 | 81 | 1012.0 |
| 20260509131806 | 15 | 214 | 11.3 | 22.5 | 0.00 | 0.00 | 0.00 | 80 | 1012.1 |
| 20260509131306 | 15 | 199 | 14.5 | 29.0 | 0.00 | 0.00 | 0.00 | 80 | 1012.1 |
| 20260509124806 | 15 | 215 | 16.1 | 33.8 | 0.00 | 0.00 | 0.00 | 81 | 1012.0 |
| 20260509124306 | 15 | 186 | 17.7 | 32.2 | 0.00 | 0.00 | 0.00 | 80 | 1012.1 |
| 20260509123806 | 15 | 191 | 14.5 | 22.5 | 0.00 | 0.00 | 0.00 | 78 | 1012.0 |
| 20260509122807 | 15 | 227 | 14.5 | 25.7 | 0.00 | 0.00 | 0.00 | 80 | 1012.0 |
| 20260509122306 | 15 | 215 | 14.5 | 25.7 | 0.00 | 0.00 | 0.00 | 80 | 1012.2 |
| 20260509121807 | 15 | 220 | 14.5 | 22.5 | 0.00 | 0.00 | 0.00 | 80 | 1012.2 |
| 20260509121306 | 15 | 213 | 12.9 | 20.9 | 0.00 | 0.00 | 0.00 | 81 | 1012.1 |
| 20260509115806 | 15 | 207 | 16.1 | 25.7 | 0.00 | 0.00 | 0.00 | 82 | 1012.2 |
| 20260509112806 | 13 | 206 | 11.3 | 20.9 | 0.00 | 0.00 | 0.00 | 84 | 1012.2 |
| 20260509111806 | 13 | 214 | 14.5 | 29.0 | 0.00 | 0.00 | 0.00 | 84 | 1012.2 |
| 20260509105806 | 13 | 207 | 19.3 | 25.7 | 0.00 | 0.00 | 0.00 | 84 | 1012.2 |
| 20260509104806 | 13 | 208 | 19.3 | 32.2 | 0.00 | 0.00 | 0.00 | 85 | 1012.3 |
| 20260509103807 | 13 | 202 | 14.5 | 25.7 | 0.00 | 0.00 | 0.00 | 84 | 1012.2 |
| 20260509102306 | 13 | 204 | 9.7 | 19.3 | 0.00 | 0.00 | 0.00 | 82 | 1012.0 |
| 20260509100306 | 13 | 195 | 9.7 | 19.3 | 0.00 | 0.00 | 0.00 | 82 | 1012.1 |
| 20260509095306 | 12 | 207 | 16.1 | 25.7 | 0.00 | 0.00 | 0.00 | 82 | 1011.9 |
| 20260509093806 | 13 | 203 | 11.3 | 20.9 | 0.00 | 0.00 | 0.00 | 78 | 1011.8 |
| 20260509093306 | 13 | 209 | 14.5 | 25.7 | 0.00 | 0.00 | 0.00 | 78 | 1011.8 |
| 20260509092808 | 13 | 203 | 14.5 | 22.5 | 0.00 | 0.00 | 0.00 | 78 | 1011.8 |
| 20260509092306 | 13 | 203 | 12.9 | 27.4 | 0.00 | 0.00 | 0.00 | 78 | 1011.7 |
| 20260509091807 | 13 | 206 | 14.5 | 32.2 | 0.00 | 0.00 | 0.00 | 78 | 1011.7 |
| 20260509083806 | 12 | 212 | 14.5 | 20.9 | 0.00 | 0.00 | 0.00 | 81 | 1011.9 |
| 20260509083306 | 12 | 210 | 11.3 | 22.5 | 0.00 | 0.00 | 0.00 | 80 | 1011.9 |
| 20260509082307 | 13 | 208 | 11.3 | 20.9 | 0.00 | 0.00 | 0.00 | 80 | 1011.9 |
| 20260509080307 | 12 | 201 | 9.7 | 19.3 | 0.00 | 0.00 | 0.00 | 81 | 1012.1 |
| 20260509075806 | 13 | 202 | 12.9 | 19.3 | 0.00 | 0.00 | 0.00 | 80 | 1012.1 |
| 20260509075307 | 13 | 187 | 11.3 | 19.3 | 0.00 | 0.00 | 0.00 | 78 | 1012.1 |
| 20260509074306 | 13 | 216 | 11.3 | 19.3 | 0.00 | 0.00 | 0.00 | 77 | 1012.0 |
| 20260509072306 | 13 | 227 | 9.7 | 22.5 | 0.00 | 0.00 | 0.00 | 77 | 1012.1 |
| 20260509070806 | 13 | 233 | 11.3 | 24.1 | 0.00 | 0.00 | 0.00 | 77 | 1012.1 |
| 20260509065806 | 13 | 206 | 9.7 | 19.3 | 0.00 | 0.00 | 0.00 | 80 | 1012.1 |
| 20260509063806 | 13 | 221 | 9.7 | 19.3 | 0.00 | 0.00 | 0.00 | 79 | 1012.3 |
| 20260509063306 | 13 | 234 | 11.3 | 20.9 | 0.00 | 0.00 | 0.00 | 79 | 1012.4 |
| 20260509062806 | 13 | 217 | 11.3 | 19.3 | 0.00 | 0.00 | 0.00 | 79 | 1012.4 |
| 20260509061806 | 13 | 239 | 11.3 | 22.5 | 0.00 | 0.00 | 0.00 | 79 | 1012.5 |
| 20260509055806 | 13 | 233 | 11.3 | 20.9 | 0.00 | 0.00 | 0.00 | 78 | 1012.6 |
| 20260509055307 | 13 | 229 | 12.9 | 22.5 | 0.00 | 0.00 | 0.00 | 78 | 1012.7 |
| 20260509052808 | 13 | 224 | 12.9 | 27.4 | 0.00 | 0.00 | 0.00 | 77 | 1012.8 |
| 20260509051806 | 13 | 221 | 14.5 | 20.9 | 0.00 | 0.00 | 0.00 | 77 | 1012.8 |
| 20260509051305 | 13 | 229 | 14.5 | 24.1 | 0.00 | 0.00 | 0.00 | 77 | 1012.9 |
| 20260509050806 | 13 | 211 | 14.5 | 22.5 | 0.00 | 0.00 | 0.00 | 76 | 1012.9 |
| 20260509050306 | 13 | 228 | 11.3 | 22.5 | 0.00 | 0.00 | 0.00 | 76 | 1012.9 |
| 20260509045806 | 13 | 204 | 14.5 | 25.7 | 0.00 | 0.00 | 0.00 | 76 | 1012.9 |
| 20260509045307 | 13 | 228 | 14.5 | 22.5 | 0.00 | 0.00 | 0.00 | 77 | 1012.9 |
| 20260509043806 | 13 | 224 | 16.1 | 25.7 | 0.00 | 0.00 | 0.00 | 77 | 1012.8 |
| 20260509043306 | 13 | 228 | 14.5 | 27.4 | 0.00 | 0.00 | 0.00 | 77 | 1012.8 |
| 20260509041306 | 13 | 221 | 12.9 | 22.5 | 0.00 | 0.00 | 0.00 | 76 | 1012.8 |
| 20260509035806 | 13 | 221 | 16.1 | 25.7 | 0.00 | 0.00 | 0.00 | 75 | 1012.8 |
| 20260509035306 | 13 | 228 | 16.1 | 25.7 | 0.00 | 0.00 | 0.00 | 75 | 1012.7 |
| 20260509033306 | 13 | 207 | 16.1 | 24.1 | 0.00 | 0.00 | 0.00 | 75 | 1012.6 |
| 20260509032307 | 13 | 210 | 14.5 | 24.1 | 0.00 | 0.00 | 0.00 | 77 | 1012.6 |
| 20260509031806 | 13 | 210 | 12.9 | 24.1 | 0.00 | 0.00 | 0.00 | 77 | 1012.6 |
| 20260509025307 | 14 | 216 | 16.1 | 25.7 | 0.00 | 0.00 | 0.00 | 76 | 1012.4 |
| 20260509023306 | 14 | 220 | 19.3 | 29.0 | 0.00 | 0.00 | 0.00 | 74 | 1012.5 |
| 20260509022806 | 14 | 228 | 19.3 | 32.2 | 0.00 | 0.00 | 0.00 | 74 | 1012.4 |
| 20260509021306 | 15 | 229 | 16.1 | 29.0 | 0.00 | 0.00 | 0.00 | 74 | 1012.4 |
| 20260509020306 | 14 | 229 | 19.3 | 27.4 | 0.00 | 0.00 | 0.00 | 74 | 1012.3 |